2018-102K (43840 NORAD) Tracking and Keplerian Element Data

This shows tracking and keplerian element data for the satellite.

Feedback or suggestion? Click here.




ElementValue
Catalog43840
Name2018-102K
Epoch Orbit10016
Epoch Day275.20339362
Epoch Year2020
RAAN351.0565
Inclination97.5651
Eccentricity0.0017037
Argument of Perigee165.3859
Mean Anonmoly247.5294
Mean Motion15.09927103
Decay Rate1.548E-05
L11 43840U 18102K 20275.20339362 .00001548 00000-0 99125-4 0 9993
L22 43840 97.5651 351.0565 0017037 165.3859 247.5294 15.09927103100162



Live tracking and technical data element details for 2018-102K (NORAD 43840). 2018-102K can be tracked NOW for your location showing map with azimuth and elevation plus other details from your city location.







IsCatalogInMostPopularTable: catalog: 43840, numindb: 339
Update: records affected: 1



GetName: 43840 2018-102K

Hit Count: updated at: Sat, 17 May 2025 09:17:14 GMT